Flag for Germany Weather past 2 weeks in Buchholz in der Nordheide, Lower Saxony, Germany

Now
81 °F

Sunny.


Feels Like: 84 °F
Forecast: 66 / 96 °F
Wind: 7 mph from Northwest

Location: Hamburg-Finkenwerder

Current Time: Jul 3, 2015 at 8:00:22 PM

Latest Report: Jul 3, 2015 at 7:20 PM


Visibility: 10 mi

Pressure: 30.21 "Hg

Humidity: 70%

Dew point: 70 °F

Location of Buchholz in der NordheideLocation

Historic Weather in Buchholz in der Nordheide — Graph

°F

Buchholz in der Nordheide temperature yesterday

Maximum temperature yesterday: 91 °F (at 4:20 PM)
Minimum temperature yesterday: 64 °F (at 5:50 AM)
Average temperature yesterday: 82 °F

Past Weeks' High & Low Weather Summary

 TemperatureHumidityPressure
High91 °F (Jul 2, 4:20 PM)100% (Jun 19, 6:20 AM)30.24 "Hg (Jun 19, 6:20 AM)
Low50 °F (Jun 19, 6:20 AM)24% (Jul 2, 4:20 PM)29.68 "Hg (Jun 22, 2:50 PM)
Average66 °F69%30.04 "Hg
* Reported Jun 18 6:20 PM — Jul 3 6:50 PM, Buchholz in der Nordheide, Weather by CustomWeather, © 2015

Note: Actual official high and low records may vary slightly from our data, if they occured in-between our weather recording intervals... More about our weather records

Advertising

Buchholz in der Nordheide weather history for previous 24 hours

 ConditionsComfort  
Time TempWeatherWind HumidityBarometerVisibility
6:50 PM
Fri, Jul 3
82 °FPassing clouds.7 mph66%30.21 "HgN/A
6:20 PM82 °FSunny.7 mph66%30.21 "Hg10 mi
5:50 PM81 °FSunny.9 mph70%30.24 "Hg10 mi
5:20 PM81 °FPassing clouds.10 mph70%30.24 "HgN/A
4:50 PM81 °FPassing clouds.10 mph70%30.24 "HgN/A
4:20 PM81 °FPassing clouds.12 mph70%30.24 "HgN/A
3:50 PM84 °FPassing clouds.12 mph62%30.24 "HgN/A
3:20 PM84 °FPassing clouds.8 mph58%30.24 "HgN/A
2:50 PM84 °FPassing clouds.8 mph58%30.24 "HgN/A
2:20 PM82 °FSunny.9 mph62%30.24 "Hg10 mi
1:50 PM82 °FPassing clouds.8 mph58%30.24 "HgN/A
1:20 PM82 °FPassing clouds.9 mph62%30.24 "HgN/A
12:50 PM81 °FPassing clouds.9 mph66%30.24 "HgN/A
12:20 PM81 °FPassing clouds.6 mph66%30.24 "HgN/A
11:50 AM81 °FPassing clouds.6 mph62%30.24 "HgN/A
11:20 AM77 °FSunny.3 mph65%30.21 "Hg10 mi
10:50 AM75 °FPassing clouds.5 mph74%30.21 "HgN/A
10:20 AM73 °FPassing clouds.5 mph78%30.21 "HgN/A
9:50 AM68 °FPassing clouds.6 mph94%30.21 "HgN/A
9:20 AM68 °FLight rain. Scattered clouds.9 mph88%30.24 "HgN/A
9:01 AM68 °FLight rain. Scattered clouds.12 mph88%30.24 "HgN/A
8:50 AM68 °FLight rain. Scattered clouds.6 mph94%30.24 "HgN/A
8:20 AM68 °FSprinkles. Broken clouds.5 mph83%30.24 "HgN/A
7:53 AM72 °FThunderstorms. Partly sunny.9 mph65%30.24 "HgN/A
7:20 AM75 °FSunny.3 mph57%30.21 "Hg10 mi
6:50 AM73 °FSunny.6 mph57%30.21 "Hg10 mi
6:20 AM70 °FPassing clouds.6 mph64%30.21 "HgN/A
5:50 AM68 °FClear.3 mph69%30.24 "Hg10 mi
9:20 PM
Thu, Jul 2
82 °FPassing clouds.10 mph32%30.15 "HgN/A
8:50 PM84 °FPassing clouds.12 mph31%30.12 "HgN/A
8:20 PM86 °FPassing clouds.9 mph29%30.15 "HgN/A
Weather by CustomWeather, © 2015

See weather overviewHow to use our weather pages